| time (UTC) | temp C | wind direction | speed KPH | gust KPH | rain 1hr cm | rain 24hr cm | rain mn cm | humidity % | barometer mb |
| 20260508075154 | 6 | 157 | 0.0 | 0.0 | 0.00 | 0.00 | 0.00 | 94 | 1015.6 |
| 20260508074651 | 6 | 32 | 0.0 | 1.6 | 0.00 | 0.00 | 0.00 | 94 | 1015.6 |
| 20260508074148 | 6 | 38 | 0.0 | 0.0 | 0.00 | 0.00 | 0.00 | 94 | 1015.5 |
| 20260508073645 | 6 | 53 | 0.0 | 0.0 | 0.00 | 0.00 | 0.00 | 94 | 1015.5 |
| 20260508073143 | 6 | 26 | 1.6 | 3.2 | 0.00 | 0.00 | 0.00 | 95 | 1015.6 |
| 20260508072638 | 6 | 147 | 0.0 | 1.6 | 0.00 | 0.00 | 0.00 | 94 | 1015.6 |
| 20260508072136 | 6 | 53 | 0.0 | 1.6 | 0.00 | 0.00 | 0.00 | 95 | 1015.5 |
| 20260508071633 | 6 | 168 | 0.0 | 3.2 | 0.00 | 0.00 | 0.00 | 94 | 1015.7 |
| 20260508071131 | 6 | 88 | 0.0 | 0.0 | 0.00 | 0.00 | 0.00 | 94 | 1015.6 |
| 20260508070629 | 6 | 135 | 0.0 | 1.6 | 0.00 | 0.00 | 0.00 | 94 | 1015.6 |
| 20260508070127 | 6 | 147 | 0.0 | 1.6 | 0.00 | 0.00 | 0.00 | 94 | 1015.7 |
| 20260508065624 | 6 | 147 | 0.0 | 3.2 | 0.00 | 0.00 | 0.00 | 94 | 1015.8 |
| 20260508065122 | 6 | 174 | 3.2 | 3.2 | 0.00 | 0.00 | 0.00 | 94 | 1015.7 |
| 20260508064619 | 6 | 119 | 1.6 | 3.2 | 0.00 | 0.00 | 0.00 | 94 | 1015.7 |
| 20260508064117 | 6 | 139 | 3.2 | 3.2 | 0.00 | 0.00 | 0.00 | 94 | 1015.9 |
| 20260508063614 | 6 | 118 | 3.2 | 3.2 | 0.00 | 0.00 | 0.00 | 94 | 1015.8 |
| 20260508063112 | 6 | 122 | 0.0 | 3.2 | 0.00 | 0.00 | 0.00 | 94 | 1016.0 |
| 20260508062609 | 6 | 129 | 1.6 | 3.2 | 0.00 | 0.00 | 0.00 | 94 | 1016.0 |
| 20260508062106 | 6 | 88 | 0.0 | 3.2 | 0.00 | 0.00 | 0.00 | 93 | 1016.1 |
| 20260508061604 | 6 | 88 | 3.2 | 3.2 | 0.00 | 0.00 | 0.00 | 93 | 1016.4 |
| 20260508061101 | 6 | 112 | 1.6 | 3.2 | 0.00 | 0.00 | 0.00 | 93 | 1016.2 |
| 20260508060557 | 6 | 99 | 1.6 | 3.2 | 0.00 | 0.00 | 0.00 | 93 | 1016.4 |
| 20260508060055 | 6 | 123 | 1.6 | 3.2 | 0.00 | 0.00 | 0.00 | 93 | 1016.4 |
| 20260508055550 | 6 | 120 | 0.0 | 3.2 | 0.00 | 0.00 | 0.00 | 93 | 1016.5 |
| 20260508055047 | 6 | 109 | 0.0 | 3.2 | 0.00 | 0.00 | 0.00 | 92 | 1016.6 |
| 20260508054543 | 6 | 44 | 0.0 | 3.2 | 0.00 | 0.00 | 0.00 | 92 | 1016.5 |
| 20260508054041 | 6 | 100 | 1.6 | 3.2 | 0.00 | 0.00 | 0.00 | 92 | 1016.5 |
| 20260508053538 | 6 | 93 | 1.6 | 3.2 | 0.00 | 0.00 | 0.00 | 91 | 1016.6 |
| 20260508053036 | 7 | 99 | 3.2 | 3.2 | 0.00 | 0.00 | 0.00 | 91 | 1016.5 |
| 20260508052533 | 7 | 96 | 1.6 | 3.2 | 0.00 | 0.00 | 0.00 | 91 | 1016.7 |
| 20260508052030 | 7 | 118 | 0.0 | 3.2 | 0.00 | 0.00 | 0.00 | 90 | 1016.6 |
| 20260508051526 | 7 | 147 | 0.0 | 1.6 | 0.00 | 0.00 | 0.00 | 90 | 1016.7 |
| 20260508051021 | 7 | 141 | 0.0 | 1.6 | 0.00 | 0.00 | 0.00 | 89 | 1016.7 |
| 20260508050518 | 7 | 131 | 0.0 | 1.6 | 0.00 | 0.00 | 0.00 | 90 | 1016.7 |
| 20260508050015 | 7 | 89 | 0.0 | 1.6 | 0.00 | 0.00 | 0.00 | 90 | 1016.7 |
| 20260508045511 | 7 | 130 | 0.0 | 1.6 | 0.00 | 0.00 | 0.00 | 89 | 1016.6 |
| 20260508045009 | 7 | 77 | 0.0 | 1.6 | 0.00 | 0.00 | 0.00 | 89 | 1016.8 |
| 20260508044506 | 7 | 119 | 0.0 | 0.0 | 0.00 | 0.00 | 0.00 | 88 | 1016.9 |
| 20260508044002 | 7 | 35 | 1.6 | 1.6 | 0.00 | 0.00 | 0.00 | 89 | 1016.9 |
| 20260508043459 | 7 | 224 | 0.0 | 0.0 | 0.00 | 0.00 | 0.00 | 88 | 1017.1 |
| 20260508042955 | 7 | 105 | 0.0 | 0.0 | 0.00 | 0.00 | 0.00 | 87 | 1016.8 |
| 20260508042453 | 7 | 26 | 1.6 | 1.6 | 0.00 | 0.00 | 0.00 | 88 | 1017.1 |
| 20260508041950 | 8 | 339 | 0.0 | 0.0 | 0.00 | 0.00 | 0.00 | 87 | 1017.0 |
| 20260508041446 | 8 | 32 | 0.0 | 3.2 | 0.00 | 0.00 | 0.00 | 87 | 1017.0 |
| 20260508040943 | 8 | 16 | 1.6 | 3.2 | 0.00 | 0.00 | 0.00 | 87 | 1016.9 |
| 20260508040440 | 8 | 83 | 0.0 | 1.6 | 0.00 | 0.00 | 0.00 | 86 | 1016.8 |
| 20260508035938 | 8 | 23 | 0.0 | 1.6 | 0.00 | 0.00 | 0.00 | 85 | 1017.1 |
| 20260508035435 | 8 | 103 | 0.0 | 0.0 | 0.00 | 0.00 | 0.00 | 81 | 1017.0 |
| 20260508034931 | 8 | 72 | 0.0 | 1.6 | 0.00 | 0.00 | 0.00 | 80 | 1017.1 |
| 20260508034429 | 9 | 103 | 0.0 | 1.6 | 0.00 | 0.00 | 0.00 | 77 | 1016.9 |
| 20260508033925 | 9 | 128 | 1.6 | 3.2 | 0.00 | 0.00 | 0.00 | 78 | 1016.9 |
| 20260508033424 | 9 | 107 | 1.6 | 3.2 | 0.00 | 0.00 | 0.00 | 79 | 1017.0 |
| 20260508032921 | 9 | 57 | 1.6 | 1.6 | 0.00 | 0.00 | 0.00 | 81 | 1017.1 |
| 20260508032418 | 9 | 19 | 0.0 | 0.0 | 0.00 | 0.00 | 0.00 | 81 | 1017.0 |
| 20260508031915 | 10 | 147 | 0.0 | 1.6 | 0.00 | 0.00 | 0.00 | 80 | 1017.1 |
| 20260508031412 | 10 | 135 | 0.0 | 1.6 | 0.00 | 0.00 | 0.00 | 76 | 1016.9 |
| 20260508030908 | 10 | 113 | 0.0 | 1.6 | 0.00 | 0.00 | 0.00 | 76 | 1016.7 |
| 20260508030405 | 10 | 97 | 0.0 | 1.6 | 0.00 | 0.00 | 0.00 | 76 | 1016.7 |
| 20260508025902 | 10 | 44 | 0.0 | 1.6 | 0.00 | 0.00 | 0.00 | 79 | 1016.6 |
| 20260508025358 | 10 | 124 | 0.0 | 0.0 | 0.00 | 0.00 | 0.00 | 74 | 1016.5 |
| 20260508024855 | 10 | 72 | 0.0 | 1.6 | 0.00 | 0.00 | 0.00 | 74 | 1016.5 |
| 20260508024352 | 10 | 168 | 0.0 | 1.6 | 0.00 | 0.00 | 0.00 | 72 | 1016.6 |
| 20260508023849 | 11 | 136 | 0.0 | 1.6 | 0.00 | 0.00 | 0.00 | 71 | 1016.4 |
| 20260508023346 | 11 | 141 | 0.0 | 1.6 | 0.00 | 0.00 | 0.00 | 71 | 1016.4 |
| 20260508022843 | 11 | 145 | 0.0 | 1.6 | 0.00 | 0.00 | 0.00 | 67 | 1016.2 |
| 20260508022338 | 11 | 55 | 0.0 | 0.0 | 0.00 | 0.00 | 0.00 | 68 | 1016.2 |
| 20260508021836 | 11 | 135 | 0.0 | 1.6 | 0.00 | 0.00 | 0.00 | 65 | 1016.1 |
| 20260508021332 | 12 | 101 | 0.0 | 1.6 | 0.00 | 0.00 | 0.00 | 64 | 1016.0 |
| 20260508020827 | 12 | 136 | 0.0 | 3.2 | 0.00 | 0.00 | 0.00 | 63 | 1015.9 |
| 20260508020326 | 12 | 157 | 0.0 | 1.6 | 0.00 | 0.00 | 0.00 | 60 | 1015.9 |
| 20260508015822 | 12 | 141 | 0.0 | 1.6 | 0.00 | 0.00 | 0.00 | 58 | 1015.8 |
| 20260508015320 | 12 | 121 | 0.0 | 1.6 | 0.00 | 0.00 | 0.00 | 56 | 1015.8 |
| 20260508014817 | 12 | 130 | 1.6 | 3.2 | 0.00 | 0.00 | 0.00 | 57 | 1015.8 |
| 20260508014314 | 12 | 126 | 0.0 | 3.2 | 0.00 | 0.00 | 0.00 | 59 | 1015.9 |
| 20260508013809 | 12 | 152 | 1.6 | 1.6 | 0.00 | 0.00 | 0.00 | 59 | 1015.8 |
| 20260508013306 | 13 | 55 | 0.0 | 0.0 | 0.00 | 0.00 | 0.00 | 57 | 1015.6 |
| 20260508012803 | 13 | 89 | 0.0 | 1.6 | 0.00 | 0.00 | 0.00 | 57 | 1015.8 |
| 20260508012300 | 13 | 123 | 0.0 | 1.6 | 0.00 | 0.00 | 0.00 | 57 | 1015.5 |
| 20260508011758 | 13 | 113 | 0.0 | 1.6 | 0.00 | 0.00 | 0.00 | 58 | 1015.5 |
| 20260508011255 | 13 | 336 | 0.0 | 1.6 | 0.00 | 0.00 | 0.00 | 58 | 1015.4 |
| 20260508010752 | 13 | 76 | 0.0 | 1.6 | 0.00 | 0.00 | 0.00 | 56 | 1015.5 |
| 20260508010250 | 14 | 35 | 0.0 | 1.6 | 0.00 | 0.00 | 0.00 | 58 | 1015.3 |
| 20260508005747 | 14 | 103 | 0.0 | 1.6 | 0.00 | 0.00 | 0.00 | 58 | 1015.4 |
| 20260508005244 | 15 | 142 | 0.0 | 0.0 | 0.00 | 0.00 | 0.00 | 56 | 1015.3 |
| 20260508004739 | 15 | 13 | 0.0 | 1.6 | 0.00 | 0.00 | 0.00 | 51 | 1015.3 |
| 20260508004236 | 15 | 110 | 0.0 | 0.0 | 0.00 | 0.00 | 0.00 | 55 | 1015.2 |
| 20260508003732 | 16 | 352 | 0.0 | 0.0 | 0.00 | 0.00 | 0.00 | 55 | 1015.4 |
| 20260508003230 | 16 | 132 | 1.6 | 3.2 | 0.00 | 0.00 | 0.00 | 53 | 1015.3 |
| 20260508002726 | 16 | 210 | 3.2 | 4.8 | 0.00 | 0.00 | 0.00 | 46 | 1015.3 |
| 20260508002224 | 16 | 180 | 0.0 | 4.8 | 0.00 | 0.00 | 0.00 | 47 | 1015.2 |
| 20260508001719 | 17 | 233 | 4.8 | 6.4 | 0.00 | 0.00 | 0.00 | 47 | 1015.4 |
| 20260508001215 | 17 | 259 | 6.4 | 9.7 | 0.00 | 0.00 | 0.00 | 43 | 1015.4 |
| 20260508000711 | 17 | 245 | 0.0 | 6.4 | 0.00 | 0.00 | 0.00 | 44 | 1015.2 |
| 20260508000209 | 17 | 218 | 3.2 | 6.4 | 0.00 | 0.00 | 0.00 | 42 | 1015.1 |
| 20260507235705 | 17 | 192 | 1.6 | 8.0 | 0.00 | 0.00 | 0.00 | 44 | 1015.4 |
| 20260507235202 | 17 | 243 | 9.7 | 11.3 | 0.00 | 0.00 | 0.00 | 42 | 1015.2 |
| 20260507234659 | 17 | 268 | 3.2 | 9.7 | 0.00 | 0.00 | 0.00 | 43 | 1015.2 |
| 20260507234156 | 17 | 240 | 6.4 | 16.1 | 0.00 | 0.00 | 0.00 | 42 | 1015.3 |
| 20260507233653 | 18 | 210 | 4.8 | 16.1 | 0.00 | 0.00 | 0.00 | 42 | 1015.3 |
| 20260507233151 | 18 | 101 | 4.8 | 4.8 | 0.00 | 0.00 | 0.00 | 41 | 1015.2 |
| 20260507232647 | 18 | 237 | 4.8 | 9.7 | 0.00 | 0.00 | 0.00 | 40 | 1015.4 |
| 20260507232145 | 18 | 133 | 3.2 | 8.0 | 0.00 | 0.00 | 0.00 | 41 | 1015.3 |
| 20260507231641 | 18 | 142 | 3.2 | 6.4 | 0.00 | 0.00 | 0.00 | 41 | 1015.4 |
| 20260507231138 | 18 | 230 | 4.8 | 12.9 | 0.00 | 0.00 | 0.00 | 39 | 1015.3 |
| 20260507230634 | 18 | 242 | 6.4 | 11.3 | 0.00 | 0.00 | 0.00 | 39 | 1015.6 |
| 20260507230132 | 18 | 257 | 12.9 | 16.1 | 0.00 | 0.00 | 0.00 | 38 | 1015.8 |
| 20260507225631 | 20 | 266 | 6.4 | 12.9 | 0.00 | 0.00 | 0.00 | 39 | 1015.7 |
| 20260507225128 | 20 | 168 | 3.2 | 8.0 | 0.00 | 0.00 | 0.00 | 38 | 1015.7 |
| 20260507224624 | 20 | 221 | 3.2 | 9.7 | 0.00 | 0.00 | 0.00 | 37 | 1015.6 |
| 20260507224121 | 19 | 250 | 8.0 | 12.9 | 0.00 | 0.00 | 0.00 | 36 | 1015.8 |
| 20260507223617 | 20 | 244 | 6.4 | 11.3 | 0.00 | 0.00 | 0.00 | 38 | 1015.6 |
| 20260507223114 | 20 | 210 | 3.2 | 9.7 | 0.00 | 0.00 | 0.00 | 36 | 1015.6 |
| 20260507222611 | 19 | 200 | 9.7 | 11.3 | 0.00 | 0.00 | 0.00 | 37 | 1015.6 |
| 20260507222107 | 19 | 237 | 11.3 | 14.5 | 0.00 | 0.00 | 0.00 | 36 | 1015.8 |
| 20260507221603 | 19 | 249 | 8.0 | 19.3 | 0.00 | 0.00 | 0.00 | 36 | 1015.7 |
| 20260507221100 | 20 | 151 | 6.4 | 6.4 | 0.00 | 0.00 | 0.00 | 35 | 1015.8 |
| 20260507220558 | 20 | 242 | 12.9 | 14.5 | 0.00 | 0.00 | 0.00 | 35 | 1015.8 |
| 20260507220055 | 20 | 231 | 11.3 | 16.1 | 0.00 | 0.00 | 0.00 | 35 | 1015.7 |
| 20260507215551 | 20 | 338 | 8.0 | 17.7 | 0.00 | 0.00 | 0.00 | 36 | 1015.8 |
| 20260507215049 | 20 | 283 | 3.2 | 9.7 | 0.00 | 0.00 | 0.00 | 35 | 1015.9 |
| 20260507214546 | 20 | 198 | 3.2 | 6.4 | 0.00 | 0.00 | 0.00 | 36 | 1015.7 |
| 20260507214042 | 20 | 214 | 6.4 | 16.1 | 0.00 | 0.00 | 0.00 | 36 | 1015.7 |
| 20260507213538 | 20 | 246 | 4.8 | 12.9 | 0.00 | 0.00 | 0.00 | 36 | 1015.8 |
| 20260507213036 | 20 | 227 | 4.8 | 8.0 | 0.00 | 0.00 | 0.00 | 34 | 1016.0 |
| 20260507212531 | 20 | 164 | 4.8 | 9.7 | 0.00 | 0.00 | 0.00 | 33 | 1016.2 |
| 20260507212028 | 18 | 253 | 6.4 | 9.7 | 0.00 | 0.00 | 0.00 | 35 | 1016.2 |
| 20260507211525 | 17 | 248 | 0.0 | 9.7 | 0.00 | 0.00 | 0.00 | 37 | 1016.4 |
| 20260507211021 | 20 | 250 | 12.9 | 12.9 | 0.00 | 0.00 | 0.00 | 35 | 1016.4 |
| 20260507210519 | 20 | 200 | 3.2 | 6.4 | 0.00 | 0.00 | 0.00 | 35 | 1016.1 |
| 20260507210015 | 19 | 162 | 3.2 | 17.7 | 0.00 | 0.00 | 0.00 | 37 | 1016.1 |
| 20260507205512 | 19 | 252 | 17.7 | 22.5 | 0.00 | 0.00 | 0.00 | 34 | 1016.4 |
| 20260507205008 | 18 | 241 | 16.1 | 25.7 | 0.00 | 0.00 | 0.00 | 35 | 1016.4 |
| 20260507204505 | 20 | 268 | 4.8 | 4.8 | 0.00 | 0.00 | 0.00 | 35 | 1016.2 |
| 20260507204003 | 18 | 217 | 1.6 | 22.5 | 0.00 | 0.00 | 0.00 | 36 | 1016.6 |
| 20260507203500 | 19 | 246 | 11.3 | 17.7 | 0.00 | 0.00 | 0.00 | 35 | 1016.5 |
| 20260507202956 | 18 | 239 | 8.0 | 17.7 | 0.00 | 0.00 | 0.00 | 36 | 1016.6 |
| 20260507202453 | 20 | 332 | 0.0 | 9.7 | 0.00 | 0.00 | 0.00 | 34 | 1016.5 |
| 20260507201949 | 19 | 245 | 14.5 | 16.1 | 0.00 | 0.00 | 0.00 | 35 | 1016.7 |
| 20260507201449 | 19 | 137 | 3.2 | 4.8 | 0.00 | 0.00 | 0.00 | 33 | 1016.7 |
| 20260507200947 | 18 | 289 | 4.8 | 12.9 | 0.00 | 0.00 | 0.00 | 36 | 1017.0 |
| 20260507200442 | 20 | 241 | 8.0 | 9.7 | 0.00 | 0.00 | 0.00 | 35 | 1017.2 |
| 20260507195938 | 18 | 145 | 9.7 | 16.1 | 0.00 | 0.00 | 0.00 | 34 | 1016.9 |
| 20260507195436 | 18 | 85 | 4.8 | 16.1 | 0.00 | 0.00 | 0.00 | 36 | 1017.0 |
| 20260507194933 | 19 | 253 | 4.8 | 16.1 | 0.00 | 0.00 | 0.00 | 35 | 1017.0 |
| 20260507194429 | 17 | 217 | 1.6 | 20.9 | 0.00 | 0.00 | 0.00 | 38 | 1017.1 |
| 20260507193925 | 18 | 0 | 4.8 | 22.5 | 0.00 | 0.00 | 0.00 | 34 | 1017.4 |
| 20260507193423 | 20 | 212 | 1.6 | 6.4 | 0.00 | 0.00 | 0.00 | 34 | 1017.1 |
| 20260507192919 | 19 | 122 | 3.2 | 12.9 | 0.00 | 0.00 | 0.00 | 35 | 1017.2 |
| 20260507192415 | 18 | 256 | 6.4 | 22.5 | 0.00 | 0.00 | 0.00 | 36 | 1017.4 |
| 20260507191913 | 19 | 347 | 1.6 | 8.0 | 0.00 | 0.00 | 0.00 | 34 | 1017.2 |
| 20260507191409 | 18 | 130 | 0.0 | 4.8 | 0.00 | 0.00 | 0.00 | 35 | 1017.5 |
| 20260507190905 | 17 | 222 | 4.8 | 24.1 | 0.00 | 0.00 | 0.00 | 37 | 1017.6 |
| 20260507190403 | 18 | 271 | 8.0 | 14.5 | 0.00 | 0.00 | 0.00 | 38 | 1017.3 |
| 20260507185902 | 18 | 256 | 12.9 | 17.7 | 0.00 | 0.00 | 0.00 | 37 | 1017.6 |
| 20260507185359 | 18 | 243 | 6.4 | 9.7 | 0.00 | 0.00 | 0.00 | 34 | 1017.7 |
| 20260507184855 | 18 | 257 | 1.6 | 8.0 | 0.00 | 0.00 | 0.00 | 35 | 1017.7 |
| 20260507184353 | 18 | 241 | 4.8 | 11.3 | 0.00 | 0.00 | 0.00 | 36 | 1017.7 |
| 20260507183850 | 17 | 240 | 9.7 | 19.3 | 0.00 | 0.00 | 0.00 | 36 | 1017.7 |
| 20260507183347 | 17 | 251 | 17.7 | 27.4 | 0.00 | 0.00 | 0.00 | 34 | 1017.7 |
| 20260507182845 | 17 | 235 | 19.3 | 20.9 | 0.00 | 0.00 | 0.00 | 34 | 1017.7 |
| 20260507182340 | 17 | 132 | 8.0 | 11.3 | 0.00 | 0.00 | 0.00 | 35 | 1017.8 |
| 20260507181837 | 17 | 238 | 3.2 | 9.7 | 0.00 | 0.00 | 0.00 | 35 | 1017.9 |
| 20260507181333 | 18 | 291 | 4.8 | 11.3 | 0.00 | 0.00 | 0.00 | 35 | 1017.8 |
| 20260507180830 | 18 | 253 | 4.8 | 9.7 | 0.00 | 0.00 | 0.00 | 38 | 1017.9 |
| 20260507180327 | 18 | 335 | 0.0 | 3.2 | 0.00 | 0.00 | 0.00 | 35 | 1018.2 |
| 20260507175822 | 17 | 55 | 3.2 | 12.9 | 0.00 | 0.00 | 0.00 | 37 | 1018.1 |
| 20260507175320 | 16 | 245 | 6.4 | 14.5 | 0.00 | 0.00 | 0.00 | 37 | 1018.1 |
| 20260507174817 | 17 | 349 | 8.0 | 14.5 | 0.00 | 0.00 | 0.00 | 37 | 1018.3 |
| 20260507174314 | 17 | 20 | 4.8 | 6.4 | 0.00 | 0.00 | 0.00 | 37 | 1018.3 |
| 20260507173812 | 16 | 293 | 6.4 | 8.0 | 0.00 | 0.00 | 0.00 | 38 | 1018.5 |
| 20260507173309 | 17 | 246 | 16.1 | 17.7 | 0.00 | 0.00 | 0.00 | 35 | 1018.5 |
| 20260507172805 | 16 | 273 | 9.7 | 16.1 | 0.00 | 0.00 | 0.00 | 35 | 1018.6 |
| 20260507172306 | 17 | 82 | 3.2 | 9.7 | 0.00 | 0.00 | 0.00 | 36 | 1018.4 |
| 20260507171757 | 16 | 265 | 3.2 | 12.9 | 0.00 | 0.00 | 0.00 | 37 | 1018.7 |
| 20260507171255 | 16 | 261 | 11.3 | 16.1 | 0.00 | 0.00 | 0.00 | 38 | 1018.4 |
| 20260507170751 | 16 | 264 | 9.7 | 14.5 | 0.00 | 0.00 | 0.00 | 38 | 1018.7 |
| 20260507170248 | 16 | 25 | 3.2 | 17.7 | 0.00 | 0.00 | 0.00 | 35 | 1018.9 |
| 20260507165744 | 16 | 256 | 3.2 | 14.5 | 0.00 | 0.00 | 0.00 | 38 | 1018.9 |
| 20260507165240 | 16 | 106 | 1.6 | 9.7 | 0.00 | 0.00 | 0.00 | 37 | 1019.1 |
| 20260507164736 | 16 | 239 | 11.3 | 14.5 | 0.00 | 0.00 | 0.00 | 37 | 1019.3 |
| 20260507164234 | 16 | 225 | 8.0 | 9.7 | 0.00 | 0.00 | 0.00 | 39 | 1019.4 |
| 20260507163731 | 16 | 173 | 3.2 | 6.4 | 0.00 | 0.00 | 0.00 | 39 | 1019.1 |
| 20260507163229 | 15 | 210 | 9.7 | 17.7 | 0.00 | 0.00 | 0.00 | 38 | 1019.6 |
| 20260507162724 | 15 | 257 | 8.0 | 14.5 | 0.00 | 0.00 | 0.00 | 38 | 1019.5 |
| 20260507162220 | 16 | 283 | 3.2 | 6.4 | 0.00 | 0.00 | 0.00 | 40 | 1019.5 |
| 20260507161717 | 16 | 339 | 4.8 | 12.9 | 0.00 | 0.00 | 0.00 | 39 | 1019.5 |
| 20260507161214 | 16 | 6 | 4.8 | 4.8 | 0.00 | 0.00 | 0.00 | 42 | 1019.4 |
| 20260507160709 | 15 | 188 | 3.2 | 6.4 | 0.00 | 0.00 | 0.00 | 42 | 1019.5 |
| 20260507160206 | 15 | 38 | 3.2 | 8.0 | 0.00 | 0.00 | 0.00 | 41 | 1019.5 |
| 20260507155702 | 16 | 238 | 8.0 | 12.9 | 0.00 | 0.00 | 0.00 | 45 | 1019.6 |
| 20260507155158 | 16 | 145 | 4.8 | 6.4 | 0.00 | 0.00 | 0.00 | 43 | 1019.6 |
| 20260507154655 | 15 | 190 | 3.2 | 3.2 | 0.00 | 0.00 | 0.00 | 41 | 1019.5 |
| 20260507154153 | 15 | 355 | 4.8 | 4.8 | 0.00 | 0.00 | 0.00 | 41 | 1019.6 |
| 20260507153649 | 14 | 332 | 3.2 | 14.5 | 0.00 | 0.00 | 0.00 | 40 | 1019.7 |
| 20260507153146 | 15 | 330 | 3.2 | 8.0 | 0.00 | 0.00 | 0.00 | 42 | 1019.6 |
| 20260507152642 | 13 | 256 | 3.2 | 11.3 | 0.00 | 0.00 | 0.00 | 45 | 1019.8 |
| 20260507152138 | 13 | 291 | 3.2 | 8.0 | 0.00 | 0.00 | 0.00 | 46 | 1019.8 |
| 20260507151634 | 14 | 232 | 4.8 | 9.7 | 0.00 | 0.00 | 0.00 | 50 | 1019.8 |
| 20260507151131 | 13 | 105 | 3.2 | 4.8 | 0.00 | 0.00 | 0.00 | 49 | 1019.7 |
| 20260507150628 | 13 | 201 | 6.4 | 9.7 | 0.00 | 0.00 | 0.00 | 50 | 1019.8 |
| 20260507150125 | 13 | 250 | 4.8 | 11.3 | 0.00 | 0.00 | 0.00 | 51 | 1020.0 |
| 20260507145626 | 13 | 238 | 8.0 | 8.0 | 0.00 | 0.00 | 0.00 | 50 | 1020.0 |
| 20260507145124 | 14 | 163 | 4.8 | 4.8 | 0.00 | 0.00 | 0.00 | 52 | 1020.0 |
| 20260507144619 | 13 | 116 | 6.4 | 6.4 | 0.00 | 0.00 | 0.00 | 52 | 1020.0 |
| 20260507144118 | 13 | 110 | 3.2 | 6.4 | 0.00 | 0.00 | 0.00 | 53 | 1020.0 |
| 20260507143614 | 13 | 135 | 1.6 | 9.7 | 0.00 | 0.00 | 0.00 | 52 | 1020.1 |
| 20260507143112 | 13 | 139 | 0.0 | 6.4 | 0.00 | 0.00 | 0.00 | 53 | 1020.1 |
| 20260507142607 | 13 | 160 | 3.2 | 3.2 | 0.00 | 0.00 | 0.00 | 59 | 1020.1 |
| 20260507142104 | 11 | 218 | 3.2 | 6.4 | 0.00 | 0.00 | 0.00 | 58 | 1020.1 |
| 20260507141600 | 12 | 266 | 3.2 | 8.0 | 0.00 | 0.00 | 0.00 | 60 | 1020.3 |
| 20260507141057 | 12 | 132 | 3.2 | 6.4 | 0.00 | 0.00 | 0.00 | 61 | 1020.2 |
| 20260507140554 | 12 | 133 | 4.8 | 4.8 | 0.00 | 0.00 | 0.00 | 65 | 1020.3 |
| 20260507140051 | 12 | 129 | 4.8 | 6.4 | 0.00 | 0.00 | 0.00 | 63 | 1020.0 |
| 20260507135548 | 12 | 124 | 1.6 | 6.4 | 0.00 | 0.00 | 0.00 | 64 | 1020.0 |
| 20260507135045 | 11 | 53 | 0.0 | 3.2 | 0.00 | 0.00 | 0.00 | 69 | 1020.2 |
| 20260507134542 | 11 | 89 | 0.0 | 1.6 | 0.00 | 0.00 | 0.00 | 72 | 1020.2 |
| 20260507134037 | 10 | 63 | 0.0 | 3.2 | 0.00 | 0.00 | 0.00 | 76 | 1020.0 |
| 20260507133534 | 10 | 359 | 3.2 | 4.8 | 0.00 | 0.00 | 0.00 | 75 | 1020.1 |
| 20260507133032 | 8 | 335 | 0.0 | 3.2 | 0.00 | 0.00 | 0.00 | 80 | 1020.1 |
| 20260507132528 | 8 | 4 | 1.6 | 3.2 | 0.00 | 0.00 | 0.00 | 81 | 1020.0 |
| 20260507132025 | 8 | 359 | 0.0 | 3.2 | 0.00 | 0.00 | 0.00 | 81 | 1020.0 |
| 20260507131522 | 7 | 53 | 0.0 | 1.6 | 0.00 | 0.00 | 0.00 | 82 | 1019.9 |
| 20260507131019 | 7 | 216 | 0.0 | 3.2 | 0.00 | 0.00 | 0.00 | 83 | 1019.7 |
| 20260507130516 | 7 | 262 | 0.0 | 4.8 | 0.00 | 0.00 | 0.00 | 82 | 1020.0 |
| 20260507130014 | 6 | 234 | 3.2 | 4.8 | 0.00 | 0.00 | 0.00 | 83 | 1020.0 |
| 20260507125512 | 6 | 93 | 0.0 | 1.6 | 0.00 | 0.00 | 0.00 | 87 | 1020.0 |
| 20260507125011 | 5 | 28 | 0.0 | 3.2 | 0.00 | 0.00 | 0.00 | 89 | 1020.1 |
| 20260507124506 | 4 | 346 | 1.6 | 1.6 | 0.00 | 0.00 | 0.00 | 91 | 1019.8 |
| 20260507124003 | 4 | 242 | 3.2 | 3.2 | 0.00 | 0.00 | 0.00 | 94 | 1019.9 |
| 20260507123501 | 3 | 242 | 3.2 | 3.2 | 0.00 | 0.00 | 0.00 | 96 | 1019.9 |
| 20260507122957 | 3 | 327 | 0.0 | 3.2 | 0.00 | 0.00 | 0.00 | 96 | 1019.7 |
| 20260507122453 | 3 | 336 | 0.0 | 4.8 | 0.00 | 0.00 | 0.00 | 97 | 1019.8 |
| 20260507121949 | 3 | 63 | 0.0 | 1.6 | 0.00 | 0.00 | 0.00 | 97 | 1019.7 |
| 20260507121444 | 3 | 98 | 0.0 | 3.2 | 0.00 | 0.00 | 0.00 | 97 | 1019.8 |
| 20260507120941 | 2 | 235 | 0.0 | 3.2 | 0.00 | 0.00 | 0.00 | 98 | 1019.8 |
| 20260507120437 | 2 | 25 | 0.0 | 3.2 | 0.00 | 0.00 | 0.00 | 98 | 1019.6 |
| 20260507115934 | 2 | 353 | 0.0 | 3.2 | 0.00 | 0.00 | 0.00 | 98 | 1019.6 |
| 20260507115430 | 2 | 329 | 0.0 | 3.2 | 0.00 | 0.00 | 0.00 | 98 | 1019.5 |
| 20260507114926 | 2 | 289 | 0.0 | 3.2 | 0.00 | 0.00 | 0.00 | 98 | 1019.5 |
| 20260507114423 | 2 | 74 | 0.0 | 3.2 | 0.00 | 0.00 | 0.00 | 98 | 1019.4 |
| 20260507113920 | 2 | 74 | 1.6 | 3.2 | 0.00 | 0.00 | 0.00 | 98 | 1019.3 |
| 20260507113417 | 2 | 34 | 0.0 | 3.2 | 0.00 | 0.00 | 0.00 | 98 | 1019.5 |
| 20260507112914 | 2 | 208 | 0.0 | 1.6 | 0.00 | 0.00 | 0.00 | 98 | 1019.4 |
| 20260507112412 | 2 | 266 | 3.2 | 3.2 | 0.00 | 0.00 | 0.00 | 98 | 1019.4 |
| 20260507111909 | 1 | 37 | 1.6 | 3.2 | 0.00 | 0.00 | 0.00 | 98 | 1019.5 |
| 20260507111406 | 1 | 126 | 1.6 | 1.6 | 0.00 | 0.00 | 0.00 | 98 | 1019.1 |
| 20260507110902 | 1 | 310 | 0.0 | 3.2 | 0.00 | 0.00 | 0.00 | 98 | 1019.0 |
| 20260507110358 | 2 | 2 | 3.2 | 3.2 | 0.00 | 0.00 | 0.00 | 98 | 1019.3 |
| 20260507105855 | 2 | 257 | 0.0 | 3.2 | 0.00 | 0.00 | 0.00 | 98 | 1018.9 |
| 20260507105352 | 1 | 50 | 0.0 | 3.2 | 0.00 | 0.00 | 0.00 | 98 | 1018.9 |
| 20260507104848 | 1 | 312 | 0.0 | 3.2 | 0.00 | 0.00 | 0.00 | 98 | 1018.9 |
| 20260507104345 | 1 | 198 | 0.0 | 3.2 | 0.00 | 0.00 | 0.00 | 98 | 1019.0 |
| 20260507103841 | 1 | 119 | 0.0 | 3.2 | 0.00 | 0.00 | 0.00 | 98 | 1019.0 |
| 20260507103338 | 1 | 201 | 0.0 | 3.2 | 0.00 | 0.00 | 0.00 | 98 | 1018.8 |
| 20260507102834 | 1 | 142 | 0.0 | 1.6 | 0.00 | 0.00 | 0.00 | 98 | 1018.9 |
| 20260507102331 | 1 | 217 | 0.0 | 3.2 | 0.00 | 0.00 | 0.00 | 98 | 1018.9 |
| 20260507101827 | 1 | 60 | 1.6 | 4.8 | 0.00 | 0.00 | 0.00 | 98 | 1019.0 |
| 20260507101327 | 1 | 139 | 3.2 | 3.2 | 0.00 | 0.00 | 0.00 | 97 | 1018.6 |
| 20260507100825 | 1 | 212 | 1.6 | 3.2 | 0.00 | 0.00 | 0.00 | 97 | 1018.9 |
| 20260507100323 | 1 | 326 | 0.0 | 3.2 | 0.00 | 0.00 | 0.00 | 97 | 1018.8 |
| 20260507095821 | 1 | 223 | 3.2 | 4.8 | 0.00 | 0.00 | 0.00 | 97 | 1019.0 |
| 20260507095317 | 1 | 253 | 1.6 | 6.4 | 0.00 | 0.00 | 0.00 | 97 | 1018.9 |
| 20260507094814 | 2 | 309 | 1.6 | 4.8 | 0.00 | 0.00 | 0.00 | 97 | 1018.8 |
| 20260507094311 | 2 | 98 | 0.0 | 4.8 | 0.00 | 0.00 | 0.00 | 97 | 1018.7 |
| 20260507093808 | 2 | 180 | 0.0 | 3.2 | 0.00 | 0.00 | 0.00 | 97 | 1018.6 |
| 20260507093306 | 2 | 121 | 1.6 | 3.2 | 0.00 | 0.00 | 0.00 | 97 | 1018.7 |
| 20260507092804 | 2 | 123 | 1.6 | 4.8 | 0.00 | 0.00 | 0.00 | 97 | 1018.6 |
| 20260507092300 | 2 | 180 | 0.0 | 3.2 | 0.00 | 0.00 | 0.00 | 97 | 1018.7 |
| 20260507091756 | 2 | 42 | 3.2 | 4.8 | 0.00 | 0.00 | 0.00 | 97 | 1018.8 |
| 20260507091253 | 2 | 202 | 1.6 | 3.2 | 0.00 | 0.00 | 0.00 | 97 | 1018.8 |
| 20260507090753 | 2 | 144 | 0.0 | 3.2 | 0.00 | 0.00 | 0.00 | 97 | 1019.1 |
| 20260507090250 | 2 | 15 | 0.0 | 0.0 | 0.00 | 0.00 | 0.00 | 97 | 1018.9 |
| 20260507085747 | 2 | 128 | 1.6 | 3.2 | 0.00 | 0.00 | 0.00 | 97 | 1018.8 |
| 20260507085244 | 2 | 138 | 3.2 | 3.2 | 0.00 | 0.00 | 0.00 | 97 | 1018.9 |
| 20260507084741 | 2 | 107 | 1.6 | 3.2 | 0.00 | 0.00 | 0.00 | 96 | 1019.1 |
| 20260507084237 | 2 | 147 | 0.0 | 0.0 | 0.00 | 0.00 | 0.00 | 96 | 1019.3 |
| 20260507083735 | 2 | 214 | 0.0 | 0.0 | 0.00 | 0.00 | 0.00 | 96 | 1019.1 |
| 20260507083231 | 2 | 228 | 0.0 | 1.6 | 0.00 | 0.00 | 0.00 | 96 | 1019.1 |
| 20260507082728 | 2 | 168 | 0.0 | 0.0 | 0.00 | 0.00 | 0.00 | 96 | 1019.3 |
| 20260507082223 | 3 | 209 | 0.0 | 0.0 | 0.00 | 0.00 | 0.00 | 96 | 1019.3 |
| 20260507081721 | 2 | 19 | 0.0 | 0.0 | 0.00 | 0.00 | 0.00 | 96 | 1019.3 |
| 20260507081217 | 3 | 123 | 0.0 | 1.6 | 0.00 | 0.00 | 0.00 | 96 | 1019.3 |
| 20260507080713 | 3 | 321 | 0.0 | 0.0 | 0.00 | 0.00 | 0.00 | 95 | 1019.5 |
| 20260507080210 | 3 | 60 | 0.0 | 1.6 | 0.00 | 0.00 | 0.00 | 95 | 1019.5 |
| 20260507075705 | 3 | 339 | 0.0 | 0.0 | 0.00 | 0.00 | 0.00 | 95 | 1019.4 |